DW3354 Weather Reports


Display with metric or nautical units.
time (UTC)temp
F
wind
direction
speed
MPH
gust
MPH
rain 1hr
in
rain 24hr
in
rain mn
in
humidity
%
barometer
mb
20190119103204 38 96 7.0 15.0 0.00 0.00 0.00 87 1022.9
20190119100209 38 130 4.0 12.0 0.00 0.00 0.00 85 1022.8
20190119093205 38 129 4.0 10.0 0.00 0.00 0.00 86 1022.6
20190119090204 38 138 4.0 9.0 0.00 0.00 0.00 85 1022.5
20190119083204 38 122 1.0 4.0 0.00 0.00 0.00 84 1022.0
20190119080204 38 145 2.0 5.0 0.00 0.00 0.00 85 1021.5
20190119073204 37 187 0.0 0.0 0.00 0.00 0.00 88 1020.9
20190119070205 36 190 1.0 4.0 0.00 0.00 0.00 88 1020.5
20190119063204 36 291 0.0 0.0 0.00 0.00 0.00 89 1020.1
20190119060204 35 291 0.0 0.0 0.00 0.00 0.00 88 1019.7
20190119053204 36 291 0.0 0.0 0.00 0.00 0.00 87 1019.6
20190119050205 36 291 0.0 3.0 0.00 0.00 0.00 87 1019.5
20190119043204 37 292 2.0 5.0 0.00 0.00 0.00 87 1019.0
20190119040204 37 309 2.0 7.0 0.00 0.00 0.00 87 1018.9
20190119033205 37 317 3.0 9.0 0.00 0.00 0.00 87 1018.7
20190119030208 37 276 3.0 9.0 0.00 0.00 0.00 88 1018.6
20190119023204 37 301 1.0 4.0 0.00 0.00 0.00 88 1018.6
20190119020204 38 304 3.0 7.0 0.00 0.00 0.00 88 1018.4
20190119013204 37 288 5.0 10.0 0.00 0.00 0.00 89 1018.3
20190119010204 36 296 2.0 5.0 0.00 0.00 0.00 89 1018.2
20190118230204 34 331 0.0 0.0 0.00 0.00 0.00 89 1017.5
20190118223204 33 331 0.0 2.0 0.00 0.00 0.00 88 1017.5
20190118220204 34 331 0.0 0.0 0.00 0.00 0.00 86 1017.5
20190118213205 35 331 1.0 3.0 0.00 0.00 0.00 86 1017.4
20190118210205 36 331 2.0 5.0 0.00 0.00 0.00 84 1017.0
20190118203204 37 333 2.0 4.0 0.00 0.00 0.00 85 1016.6
20190118200204 37 333 0.0 0.0 0.00 0.00 0.00 85 1016.2
20190118193204 38 333 0.0 0.0 0.00 0.00 0.00 85 1016.1
20190118190205 38 333 0.0 0.0 0.00 0.00 0.00 85 1015.9
20190118183204 39 333 0.0 0.0 0.00 0.00 0.00 84 1015.8
20190118180205 39 333 0.0 0.0 0.00 0.00 0.00 82 1015.8
20190118173205 40 333 0.0 0.0 0.00 0.00 0.00 81 1015.8
20190118170205 41 333 0.0 0.0 0.00 0.00 0.00 80 1015.8
20190118163204 41 333 0.0 0.0 0.00 0.00 0.00 78 1015.6
20190118160205 43 333 0.0 0.0 0.00 0.00 0.00 75 1015.8
20190118153204 45 333 0.0 0.0 0.00 0.00 0.00 70 1015.4
20190118150205 46 333 0.0 2.0 0.00 0.00 0.00 68 1015.2
20190118143204 47 333 0.0 3.0 0.00 0.00 0.00 67 1014.9
20190118140205 49 333 0.0 2.0 0.00 0.00 0.00 66 1015.2
20190118133204 50 333 1.0 5.0 0.00 0.00 0.00 64 1015.3
20190118130205 50 337 2.0 5.0 0.00 0.00 0.00 63 1015.2
20190118123205 51 299 1.0 4.0 0.00 0.00 0.00 62 1015.2
20190118120205 50 201 0.0 3.0 0.00 0.00 0.00 64 1015.0
20190118113205 50 294 0.0 3.0 0.00 0.00 0.00 66 1015.1
20190118110204 48 9 0.0 0.0 0.00 0.00 0.00 63 1015.4